Regional Weather Roundup
Issued by NWS

Home | Current Version | Previous Version | Text Only | Print | Product List | Glossary On
Versions: 1 2 3 4 5 6 7 8 9 10 11 12 13 14 15 16 17 18 19 20 21 22 23 24 25 26 27 28 29 30 31 32 33 34 35 36 37 38 39 40 41 42 43 44 45 46 47 48 49 50
000
ASUS43 KTOP 252308
RWRKS

WEATHER ROUNDUP FOR KANSAS
NATIONAL WEATHER SERVICE GOODLAND KS
600 PM CDT THU AUG 25 2016

NOTE:  "FAIR" INDICATES FEW OR NO CLOUDS BELOW 12,000 FEET WITH NO
SIGNIFICANT WEATHER AND/OR OBSTRUCTIONS TO VISIBILITY.

KSZ001>006-013>018-027>032-041>047-260000-
NORTHWEST KANSAS

CITY           SKY/WX    TMP DP  RH WIND       PRES   REMARKS
GOODLAND       SUNNY     75  46  35 E13       30.15F
HAYS           SUNNY     77  55  47 NE7       30.11S
HILL CITY      PTSUNNY   75  54  47 NE9       30.13F
RUSSELL        SUNNY     77  59  53 E10       30.09F
$$

KSZ061>065-074>080-084>089-260000-
SOUTHWEST KANSAS

CITY           SKY/WX    TMP DP  RH WIND       PRES   REMARKS
DODGE CITY     MOSUNNY   77  61  57 NE9       30.10F
ELKHART          N/A     71  56  59 E9          N/A
GARDEN CITY    PTSUNNY   73  58  59 E9        30.12F
GREAT BEND     PTSUNNY   79  57  47 E13       30.08S
LIBERAL        CLOUDY    72  61  68 NE10      30.13F
PRATT          PTSUNNY   73  61  65 NE8       30.09S
$$

KSZ066>073-081>083-090>101-260000-
SOUTHEAST KANSAS

CITY           SKY/WX    TMP DP  RH WIND       PRES   REMARKS
CHANUTE        CLOUDY    84  73  69 N5        29.99F
COFFEYVILLE    CLOUDY    87  70  56 N5        29.99R
HUTCHINSON     CLOUDY    78  66  66 N6        30.07S
MEDICINE LODGE   N/A     77  65  66 N9        30.04F
NEWTON         SUNNY     78  68  71 N8        30.06F
PARSONS        CLOUDY    84  70  62 N5        29.99F
WICHITA INTL   MOSUNNY   83  67  58 N8G16     30.03F
WICHITA JABRA  SUNNY     82  69  64 N8        30.03F
WICHITA MCCONL CLOUDY    83  69  60 N8        30.02F
WINFIELD       MOSUNNY   86  69  56 NW7       30.01F
$$

KSZ007>012-019>026-033>040-048>060-102>105-260000-
NORTHEAST KANSAS

CITY           SKY/WX    TMP DP  RH WIND       PRES   REMARKS
CONCORDIA      SUNNY     77  57  50 NE9       30.10F
EMPORIA        CLOUDY    82  67  60 N6        30.02F
LAWRENCE       MOSUNNY   80  71  74 N9        30.03S
MANHATTAN      MOSUNNY   77  66  68 NE9       30.06F
MARYSVILLE     MOSUNNY   77  61  57 NE8       30.09S
OLATHE IND     MOSUNNY   82  70  66 NW7       30.03F
OLATHE EXE     CLOUDY    81  70  69 W5        30.03S
SALINA         MOSUNNY   78  64  61 NE8       30.08S
TOPEKA BILLARD MOSUNNY   80  69  69 N8        30.04F
TOPEKA FORBES  MOSUNNY   81  69  67 N9        30.04F
$$




USA.gov is the U.S. government's official web portal to all federal, state and local government web resources and services.